RH
10 12 16 19 19 18 14 11 12 12 12 11 11 10 10 9 9 9 8 8 8 7 7 6 6 5 5 4 4 4 3 4 3 4 4 5 6 7 7 8 9 11 13 14 14 14 13 17 20 21 23 25 30 31 29 31 30 28 26 24 22 21 24 26 29 34 36 38 39 39 40 39 40 46 50 54 56 54 52 52 56 55 42 33 31 33 36 39
9 10 13 17 19 19 16 12 11 12 12 12 11 10 9 9 9 8 8 8 7 7 7 6 5 5 4 4 3 3 3 3 3 3 4 4 5 6 7 8 9 11 12 13 12 12 13 17 21 22 24 26 28 29 29 29 26 26 24 21 19 18 20 21 26 32 34 37 38 38 39 38 41 48 53 52 54 54 52 57 55 39 32 32 31 33 34 38
9 9 11 15 18 19 18 15 11 11 12 12 12 10 9 9 9 8 8 8 7 7 7 6 5 4 3 3 3 3 3 3 3 3 3 4 5 5 7 7 9 10 11 12 10 11 14 19 26 27 24 25 30 28 26 25 21 21 21 18 16 16 20 23 27 31 32 36 39 40 40 40 42 48 52 52 55 59 53 54 52 37 31 27 26 35 36 38
9 9 10 12 16 19 19 17 13 11 12 12 12 11 10 9 8 9 8 8 8 7 7 6 5 4 3 3 3 3 2 2 3 3 3 3 4 5 6 7 8 9 10 11 9 11 16 21 28 29 26 27 29 27 21 20 18 17 18 17 14 15 19 23 27 30 32 36 37 37 39 41 45 48 48 47 52 60 57 51 47 40 32 23 23 35 38 40
9 9 9 10 14 17 19 19 15 12 11 12 12 11 10 9 9 9 9 9 9 8 8 7 5 4 4 3 3 3 2 4 6 4 3 3 4 4 5 7 7 8 9 10 9 12 18 21 26 28 27 27 26 25 21 16 13 14 16 16 15 17 20 24 26 29 31 31 32 34 36 39 41 45 46 47 52 58 59 54 43 37 33 25 20 27 36 39
9 9 9 9 11 15 18 19 17 13 11 12 12 12 10 9 9 10 10 11 10 10 8 6 5 5 4 4 4 3 3 6 9 9 6 2 3 4 5 6 7 8 8 9 9 14 19 20 24 26 24 26 25 23 21 14 12 15 16 17 17 19 21 25 26 27 29 28 31 35 36 37 38 44 48 48 54 59 60 56 42 34 35 30 19 22 29 33
8 8 9 9 9 12 16 19 19 15 12 12 12 12 10 9 9 11 12 12 12 11 9 6 5 5 5 4 4 3 3 4 8 12 9 3 3 4 4 6 6 7 7 8 11 16 20 19 23 23 21 24 22 17 16 12 12 15 16 17 18 21 23 25 25 25 27 27 31 36 37 41 41 45 48 47 56 63 63 62 49 34 35 32 22 20 24 28
8 8 8 8 9 10 14 18 19 17 13 12 13 12 10 10 10 12 13 13 13 12 9 7 5 5 5 4 5 4 3 4 5 10 8 3 3 3 4 5 5 7 7 9 15 18 19 20 21 21 21 23 20 15 14 10 11 15 17 19 20 22 23 23 23 25 28 26 32 39 44 50 44 42 48 50 61 65 58 58 48 34 36 37 27 20 24 26
8 8 8 8 8 9 13 17 20 19 14 12 13 12 10 10 11 13 14 15 15 13 10 7 6 5 5 5 4 3 5 7 5 7 9 4 3 3 4 5 5 6 6 10 16 18 19 21 21 20 21 21 19 16 12 10 13 17 18 20 21 21 22 23 23 25 29 32 38 43 45 49 42 41 51 57 65 65 53 46 37 34 40 41 32 22 23 25
10 8 8 8 8 9 12 16 18 20 16 13 13 12 11 10 11 13 15 16 15 14 10 7 6 5 5 6 5 4 9 12 7 5 7 6 4 3 3 4 5 6 6 11 16 17 18 20 19 19 19 18 16 13 10 10 15 18 17 19 21 22 22 22 23 25 29 33 35 37 39 42 41 39 48 62 71 63 48 38 32 35 40 39 34 24 23 23
13 10 8 8 8 8 11 15 17 19 18 14 13 12 11 11 12 14 16 17 16 14 11 8 6 6 6 6 6 5 11 20 18 11 6 5 5 3 3 4 4 5 6 12 16 16 18 18 18 18 18 18 14 11 10 11 14 17 18 20 22 21 21 21 23 24 27 30 31 37 42 47 50 43 40 57 68 56 40 34 33 36 36 34 31 23 23 24
18 14 10 8 8 8 11 14 15 18 19 15 13 12 11 11 13 16 17 17 16 15 11 8 6 6 6 5 5 5 15 27 26 16 8 5 5 3 4 3 4 5 5 11 16 17 18 17 17 17 16 17 13 10 12 13 14 17 20 21 20 21 21 21 22 24 27 29 32 40 46 48 52 47 40 46 56 54 41 32 33 37 34 29 26 22 26 30
21 18 14 10 9 10 11 14 14 16 19 17 14 12 11 11 14 18 18 17 17 16 12 8 8 7 6 5 4 4 17 30 25 16 9 4 4 4 4 4 4 5 5 10 15 17 18 16 15 15 14 16 15 12 12 14 16 20 21 19 19 22 21 20 23 26 27 29 33 38 44 48 49 47 46 45 55 63 54 41 35 36 35 30 29 28 30 32
23 21 19 15 13 13 14 14 13 14 17 17 15 13 11 10 15 19 19 17 17 16 13 9 9 9 7 5 5 2 11 24 23 20 17 6 3 5 4 4 4 4 5 10 16 17 16 16 15 14 16 17 17 13 12 16 18 20 21 18 20 22 21 22 25 26 26 28 31 34 39 47 47 49 53 50 56 66 65 58 46 36 34 35 35 32 33 35
24 23 22 19 16 14 15 14 12 11 15 18 16 13 12 11 16 20 19 18 16 15 14 10 10 11 7 5 6 4 5 13 14 17 20 9 3 5 4 3 4 4 5 10 16 17 15 15 13 14 18 19 18 15 13 18 20 19 21 20 20 21 22 24 25 27 27 26 30 33 39 47 49 53 58 53 53 59 63 63 54 42 34 35 38 34 36 40
25 25 24 23 21 18 16 14 11 9 11 16 15 14 12 11 17 21 19 19 17 15 14 11 11 12 8 6 7 7 4 6 7 10 14 9 4 5 4 4 4 4 6 12 16 15 14 13 11 15 20 20 18 14 14 19 20 20 22 21 20 21 23 24 26 28 27 25 29 32 38 46 50 54 57 54 52 52 56 57 56 54 42 36 39 36 38 41
27 26 24 25 24 22 20 18 15 9 9 14 15 14 12 13 25 28 23 25 24 18 13 12 13 12 11 10 11 12 12 10 9 8 8 6 5 7 7 4 4 5 8 14 15 13 12 11 12 17 20 20 18 14 14 18 20 21 23 23 21 21 23 24 25 26 25 26 28 29 36 43 48 54 55 56 56 50 52 56 62 69 57 43 41 40 42 41
26 27 26 25 24 25 24 23 20 13 10 12 14 14 11 18 32 33 32 36 33 22 14 12 13 15 18 19 20 19 18 17 9 6 7 5 7 13 12 6 4 8 12 14 13 12 12 12 13 19 21 19 18 16 15 15 19 22 23 23 23 22 23 23 24 24 24 25 26 27 35 42 47 51 51 56 62 56 54 58 64 71 64 51 44 44 48 45
22 24 26 26 26 25 25 25 24 18 11 10 15 15 11 20 32 37 45 47 39 31 24 18 15 21 27 26 27 23 22 22 10 5 11 8 11 19 15 8 9 12 13 14 12 12 14 14 15 19 20 18 16 15 14 14 18 22 22 21 23 23 23 24 24 23 22 25 27 28 34 40 44 47 48 53 61 59 57 56 59 62 59 54 47 45 52 49
18 20 23 25 27 26 26 26 25 21 12 9 15 16 14 20 28 37 44 39 34 35 32 26 20 23 28 27 29 26 23 22 11 9 15 12 15 21 16 12 14 14 13 13 12 14 17 18 18 19 20 19 15 14 14 14 17 20 20 20 22 22 23 25 25 23 23 24 26 28 33 38 40 42 44 50 57 56 55 54 52 51 48 50 48 46 52 50
15 16 17 21 24 27 28 27 26 23 14 11 15 17 17 22 26 30 32 25 23 31 30 25 21 21 26 29 32 29 20 16 13 15 18 15 17 20 17 15 15 15 14 13 13 15 19 20 19 19 19 18 15 13 14 15 16 18 19 19 19 20 21 23 24 24 24 24 26 29 33 37 39 41 41 46 52 51 51 52 48 45 44 43 43 45 49 49
13 13 13 15 18 24 30 29 28 23 15 14 18 19 22 27 31 32 33 26 16 21 25 21 19 20 25 29 31 29 20 14 16 19 18 16 17 18 16 15 14 14 14 13 14 16 19 20 19 19 18 17 15 13 13 13 15 17 17 17 17 18 19 22 23 24 23 24 28 29 32 36 37 39 41 44 48 48 49 49 46 47 46 39 38 44 47 46
10 10 11 12 12 19 28 31 30 23 17 19 21 25 28 31 37 38 39 37 20 14 20 17 14 18 24 28 26 25 21 16 18 19 17 15 15 16 14 13 13 13 13 14 14 16 18 19 19 18 17 15 14 12 12 13 13 14 15 15 16 16 17 21 22 23 23 23 27 27 30 36 37 38 40 42 45 46 47 48 47 49 48 41 38 39 39 39
7 8 9 9 9 14 24 32 31 24 19 23 26 28 28 32 44 45 41 41 26 10 13 14 10 12 20 25 23 23 20 18 20 20 17 14 14 15 12 10 11 11 11 13 14 15 17 18 18 17 16 15 13 11 11 12 12 12 13 13 13 13 14 18 19 21 22 22 25 27 30 36 37 37 39 40 42 44 45 46 47 49 49 46 43 35 31 33
4 6 7 7 7 9 19 29 30 25 21 27 30 26 24 28 38 43 38 38 27 9 10 12 8 8 17 24 24 22 19 18 20 20 18 15 15 15 11 9 10 10 11 12 14 15 15 17 17 16 16 14 12 12 11 12 12 12 13 11 10 11 12 15 18 20 21 21 22 25 32 39 37 37 39 39 41 42 43 45 46 49 49 47 48 39 29 29
5 5 5 7 7 6 15 24 28 26 21 28 31 23 22 23 30 36 33 38 30 11 9 13 7 6 13 22 24 20 18 20 21 19 17 16 16 16 13 10 10 10 11 11 13 14 14 16 16 15 15 13 12 11 10 11 11 11 12 10 10 10 10 15 18 19 19 19 19 21 29 40 40 36 38 38 41 42 41 44 46 48 47 45 48 45 35 31
9 6 5 6 7 6 10 18 25 25 22 28 28 24 22 22 31 34 33 47 41 15 12 15 11 8 10 19 23 21 21 22 22 19 16 15 17 18 14 11 10 11 11 11 12 13 13 14 15 15 14 13 12 11 11 10 9 10 11 10 10 10 9 14 16 16 16 16 19 21 22 33 38 34 35 37 41 43 41 43 46 45 45 45 46 45 40 35
11 9 6 5 7 7 7 14 24 24 23 25 25 26 25 25 35 34 37 55 42 17 17 17 14 15 14 18 22 22 22 21 20 20 16 14 14 16 15 12 11 10 11 11 11 12 13 13 14 14 14 13 12 11 11 10 9 10 10 9 9 11 10 11 14 15 15 15 19 20 19 31 40 33 34 39 40 43 43 42 45 45 45 46 47 47 44 38
12 11 8 6 7 7 6 11 21 24 24 23 24 27 25 30 35 30 42 54 33 18 22 18 16 18 17 19 21 22 22 18 18 18 15 14 12 13 14 13 11 11 10 11 11 11 12 12 14 13 13 14 13 12 11 10 10 9 10 10 9 10 9 9 13 13 12 14 17 18 17 28 40 37 36 43 41 39 40 41 44 44 43 46 48 51 52 45
12 12 10 7 7 7 6 8 16 22 24 23 25 26 28 34 34 34 49 47 24 20 23 17 18 17 16 20 20 21 21 18 17 16 15 14 13 12 13 13 12 11 11 11 12 12 11 11 13 13 13 13 12 13 12 10 10 10 9 10 9 11 10 9 11 8 11 17 15 15 15 18 34 42 36 35 32 27 29 37 42 42 41 45 48 51 54 52
12 12 11 9 7 7 7 9 13 19 22 23 24 26 30 35 34 40 45 30 18 22 20 17 19 15 15 19 19 20 20 18 16 15 15 14 14 13 12 13 13 12 11 11 11 12 11 11 11 12 12 12 11 11 11 10 10 10 9 10 10 12 11 10 10 10 17 22 14 12 14 13 25 38 32 24 20 18 22 29 34 38 42 45 49 51 53 53
12 12 12 11 8 6 7 10 13 16 19 21 23 27 30 33 38 42 34 22 22 22 16 17 18 15 17 17 18 20 20 19 16 14 15 14 14 14 12 13 13 12 12 10 11 11 11 10 11 12 11 10 10 10 10 10 10 10 9 9 11 15 17 16 16 16 19 20 14 11 14 14 17 23 22 18 18 19 20 21 23 30 37 42 47 52 54 53
12 12 12 12 9 6 7 10 11 13 17 18 22 27 31 36 42 37 25 21 24 17 13 17 16 15 17 16 18 21 20 19 16 14 15 14 15 14 13 13 13 13 13 11 11 11 11 11 10 11 10 8 10 10 10 11 10 10 9 8 13 20 24 25 22 21 20 18 13 11 14 16 15 15 15 16 18 19 20 21 22 25 29 33 41 48 51 51
12 12 11 12 10 7 8 10 10 12 15 16 21 27 31 36 39 33 23 19 21 19 17 16 14 15 16 17 19 20 19 19 15 14 14 14 16 14 13 14 13 14 13 12 11 10 12 13 10 10 9 8 10 9 10 11 9 10 9 8 12 16 21 25 24 23 22 17 13 13 15 16 15 14 16 17 18 19 22 24 24 25 27 30 35 41 45 49
12 12 11 11 11 9 9 10 10 11 13 14 19 26 31 34 32 28 22 16 19 25 23 18 16 15 15 16 18 18 17 16 14 13 13 14 16 14 13 13 14 15 14 12 12 11 11 12 11 10 9 9 10 10 10 10 9 9 9 9 11 12 14 17 18 17 16 17 17 16 16 15 14 15 17 17 16 17 22 25 25 26 30 34 37 41 44 48
11 11 11 11 11 10 10 11 10 10 12 13 16 21 28 31 26 20 14 11 19 26 25 21 17 13 14 15 16 16 15 13 13 13 13 14 15 15 14 13 14 14 13 12 12 11 10 10 9 9 9 11 11 10 10 9 9 9 9 10 12 12 12 13 16 14 13 20 21 15 13 15 14 15 16 16 16 17 22 26 27 29 31 34 37 38 39 44
11 11 11 10 11 11 11 11 10 10 11 12 14 19 25 26 20 14 11 14 22 23 22 20 16 12 13 14 14 15 13 11 12 12 13 14 14 14 14 12 13 13 13 13 11 10 10 9 9 9 10 11 10 9 10 9 10 10 10 11 11 11 12 12 16 18 17 21 19 13 12 14 14 15 15 15 15 17 22 25 25 27 30 34 35 33 34 39
10 11 10 10 11 11 11 11 11 11 11 12 13 17 23 23 17 11 11 17 23 21 20 20 17 14 13 12 13 14 13 11 11 11 13 14 14 14 13 12 11 12 12 12 11 10 9 9 10 11 11 12 10 9 10 10 10 10 10 11 11 12 12 11 14 21 24 24 20 16 13 13 14 15 15 16 16 16 20 21 20 23 28 31 33 32 31 36
10 10 9 13 16 13 11 12 12 10 10 12 13 15 21 21 15 10 10 18 23 21 20 20 19 18 15 12 12 12 13 11 10 11 12 14 14 14 13 12 11 11 12 12 12 11 9 9 11 12 12 11 9 10 11 11 11 10 11 11 10 10 12 12 12 16 22 26 25 22 18 17 17 16 15 16 16 17 18 18 18 20 23 24 27 28 28 29
8 6 10 23 28 22 15 12 12 12 11 12 12 16 20 20 16 12 11 17 22 21 21 20 20 19 17 15 13 12 12 11 10 11 12 13 14 13 13 12 10 10 10 11 12 12 10 10 11 12 12 11 10 11 11 12 11 10 10 11 10 11 10 11 12 11 15 23 27 26 25 23 19 16 17 17 17 18 19 19 20 21 21 23 24 25 25 27
5 7 24 37 34 30 25 16 12 11 11 13 13 14 19 20 19 17 15 18 20 19 20 20 20 20 19 17 16 13 11 11 10 11 12 13 12 12 12 11 10 10 10 10 11 12 11 10 11 12 12 10 10 11 10 11 11 10 10 10 10 11 9 11 17 13 11 17 20 22 26 24 19 19 19 18 19 19 19 20 21 21 22 23 25 27 28 29
3 11 39 49 38 41 42 29 21 16 10 11 12 13 17 20 21 20 19 21 21 19 18 17 19 20 19 18 17 16 16 14 11 10 11 12 12 12 11 11 10 10 10 10 10 11 10 10 11 12 12 11 11 11 11 11 11 10 11 10 10 11 9 12 19 16 11 14 13 15 23 23 19 20 19 19 19 18 19 19 19 22 23 22 23 27 30 30
3 10 40 54 46 52 59 49 38 30 21 16 16 17 19 19 21 21 21 21 21 19 17 16 18 19 18 19 19 20 20 18 15 12 10 10 11 11 10 10 10 9 10 9 9 10 10 11 12 12 11 11 10 11 11 11 11 10 10 10 10 11 10 10 14 14 13 15 12 15 26 26 19 18 19 19 19 17 18 18 18 23 26 23 24 27 29 29
4 8 36 57 51 51 63 64 53 43 37 31 27 26 23 20 20 20 20 21 19 18 17 16 19 19 18 19 20 20 20 19 19 16 12 10 10 11 10 9 9 9 9 9 8 10 10 11 13 14 16 15 13 13 12 10 11 10 10 11 10 10 11 10 12 14 15 15 12 18 30 27 19 18 18 18 19 19 19 20 21 23 25 26 28 28 29 29
4 7 31 56 57 50 52 58 57 49 41 35 30 28 24 22 21 20 20 20 19 18 16 16 19 19 19 19 19 19 20 20 20 19 17 13 9 9 10 10 10 10 9 9 9 9 12 13 12 15 22 23 19 18 15 11 11 11 10 11 10 10 10 9 11 15 16 15 13 16 25 25 20 20 20 19 20 20 21 23 23 23 25 25 27 29 30 29
5 10 24 37 46 51 46 43 48 48 42 37 34 31 26 23 21 21 20 19 18 18 16 16 19 21 21 20 18 18 19 20 20 19 19 18 14 11 9 9 10 11 9 9 9 9 11 13 11 12 16 18 15 15 14 11 11 11 10 10 10 10 10 9 9 11 14 15 14 13 19 24 23 22 21 20 20 20 21 23 23 24 26 26 27 28 30 30
7 19 35 36 36 45 45 41 44 44 38 36 35 34 32 28 23 21 20 18 17 16 15 16 19 22 23 22 20 18 17 18 19 19 20 23 23 23 19 11 9 11 11 9 10 10 10 11 12 11 11 13 14 14 13 12 11 11 11 11 10 10 10 10 10 10 12 15 16 14 15 20 21 21 21 21 21 21 22 23 23 24 26 26 27 27 28 29
12 22 42 52 47 44 43 43 44 44 41 40 36 32 30 31 29 26 23 21 19 15 15 19 21 23 26 25 23 21 19 18 19 20 22 24 26 26 22 14 9 10 11 11 11 11 11 11 11 11 10 11 12 12 12 12 12 12 12 12 11 10 10 10 10 11 12 15 16 14 12 14 16 18 20 21 21 21 21 22 24 24 24 25 26 27 28 28
16 15 25 44 54 52 49 51 51 48 47 47 45 37 30 28 30 31 30 29 26 19 18 22 23 23 25 25 23 21 19 18 19 20 22 24 25 25 22 17 16 15 12 12 13 13 12 12 11 11 11 11 11 11 11 11 12 12 12 12 11 10 10 10 10 10 11 13 14 13 13 12 13 15 18 19 19 20 21 23 25 25 24 25 26 26 27 28
14 13 13 27 47 55 55 56 56 52 47 45 46 42 33 25 26 30 31 33 34 29 24 24 23 22 23 24 23 20 21 26 28 26 26 25 25 28 27 22 22 21 15 11 14 14 13 12 12 10 11 12 11 11 10 11 11 11 11 12 12 12 11 11 11 10 11 11 12 14 16 14 13 14 16 18 20 22 23 23 23 24 24 24 24 25 26 27
13 14 10 14 34 52 56 55 55 55 51 47 46 45 39 32 32 35 34 33 36 36 33 30 26 24 24 23 23 22 25 34 37 34 32 29 26 28 29 25 22 21 17 12 13 14 14 14 13 11 11 12 12 12 12 11 11 10 10 12 12 12 12 12 12 12 12 11 11 13 16 15 15 16 17 20 22 22 23 23 23 24 24 24 25 25 25 24
13 14 11 9 19 37 46 45 45 50 52 51 49 49 47 43 41 41 39 36 35 35 38 36 29 26 26 26 30 30 28 33 38 37 34 32 30 29 28 26 24 22 20 16 13 13 14 14 13 12 13 13 12 13 12 11 12 13 12 12 13 12 12 13 14 14 14 13 12 12 13 14 17 18 18 20 22 21 22 24 24 24 25 27 28 27 26 25
Wind_Speed
14 14 14 15 15 15 14 13 13 13 13 13 14 16 17 18 19 19 20 20 21 22 22 23 22 22 22 21 20 19 18 17 17 19 18 16 19 21 19 18 16 15 14 11 11 9 6 5 4 4 6 10 11 10 8 2 5 9 9 10 11 11 16 11 13 15 16 14 13 14 12 14 16 15 17 17 14 13 10 8 10 9 5 5 11 14 16 16
14 13 14 14 15 15 15 14 13 14 13 13 14 15 16 16 17 18 18 19 20 21 21 22 22 21 20 19 18 16 16 15 16 17 13 14 21 22 19 18 17 16 15 13 11 8 8 9 6 5 8 7 4 4 4 3 5 10 10 4 2 9 11 6 10 15 16 15 13 12 11 12 14 15 17 16 15 14 13 15 14 11 8 7 9 12 14 15
13 13 13 14 15 15 16 15 14 14 14 14 14 15 15 16 16 17 17 18 19 20 20 21 20 19 17 16 16 14 14 14 15 14 12 17 21 18 18 18 17 17 15 14 12 10 12 12 6 3 6 6 7 5 4 7 6 6 9 5 4 10 11 12 12 13 14 14 13 13 13 13 13 15 15 14 16 16 15 16 13 9 8 7 9 11 13 15
13 13 13 13 14 15 16 15 14 14 14 14 14 15 15 16 16 16 17 17 18 18 19 19 18 17 15 14 13 13 12 12 13 12 13 19 19 16 18 18 18 17 15 15 13 12 14 14 10 9 9 9 14 12 9 8 4 2 5 4 6 7 11 13 11 12 13 14 14 14 14 14 15 16 13 10 13 13 11 10 9 7 4 5 10 12 13 15
14 13 13 13 13 14 16 16 15 14 14 14 15 15 15 16 16 16 17 16 16 17 17 16 15 14 12 12 11 11 10 10 12 13 14 17 17 17 18 19 19 18 17 17 15 16 16 15 14 11 11 13 14 16 14 7 1 1 1 8 9 9 14 14 12 14 14 13 12 11 12 14 14 15 12 10 12 9 7 7 4 3 2 5 8 12 13 13
14 14 13 13 13 14 15 16 15 14 14 14 15 15 15 16 16 16 16 16 16 15 15 13 12 11 11 11 10 9 9 10 9 9 14 17 17 18 19 20 20 19 19 19 17 18 17 17 17 14 14 15 13 13 13 9 1 3 5 3 7 10 14 15 13 13 12 12 12 11 11 9 10 14 14 11 13 12 9 8 3 0 3 5 6 10 12 12
15 14 14 13 13 13 14 15 16 14 14 14 15 15 16 16 16 16 16 15 15 15 13 11 10 10 10 10 9 10 11 11 9 5 10 17 18 20 21 21 21 21 21 20 20 20 19 21 19 14 13 14 10 6 7 10 5 3 5 6 7 13 14 13 13 11 11 10 10 10 7 6 8 13 13 11 15 16 13 10 6 1 2 5 6 8 10 12
15 15 14 14 13 13 14 15 15 15 14 14 14 15 15 16 16 16 16 15 15 14 11 9 9 10 10 10 10 11 8 9 13 8 8 17 19 20 23 23 22 22 22 22 23 22 22 23 19 11 12 16 10 9 9 8 5 3 8 10 10 12 11 10 12 12 10 10 11 12 10 8 6 10 13 15 17 15 12 9 6 2 3 6 6 6 8 10
15 15 14 14 14 13 14 14 15 15 14 14 14 15 15 16 16 15 16 15 15 14 11 9 9 10 10 11 10 11 8 8 15 12 8 14 20 22 23 24 23 23 23 24 26 24 23 22 17 9 7 12 11 12 13 8 6 10 11 12 10 7 9 11 13 13 12 13 14 13 10 6 4 8 13 15 15 13 10 8 5 2 5 7 7 8 8 8
16 15 15 14 14 14 14 14 15 15 14 14 14 15 14 15 15 15 15 16 15 14 11 9 9 10 10 11 11 11 10 8 12 13 11 13 18 22 23 24 24 24 23 26 29 27 23 17 15 11 5 9 10 6 10 11 9 12 8 8 10 8 9 13 13 11 12 12 9 7 6 6 5 7 11 14 16 15 12 8 4 3 6 8 8 9 9 9
17 16 15 14 14 14 14 14 15 15 15 14 14 15 14 14 14 14 15 16 15 14 12 10 9 10 11 12 11 11 9 6 6 9 11 13 17 20 23 25 25 25 24 28 29 27 23 14 13 13 13 12 9 3 5 11 11 10 7 10 12 10 12 16 11 6 10 10 6 5 10 12 8 5 9 14 17 14 12 9 6 5 7 7 9 10 10 10
17 17 16 15 15 15 15 15 15 15 15 14 14 15 15 14 13 12 14 15 15 14 12 10 10 10 12 12 10 8 8 7 6 7 10 12 15 18 21 23 26 26 25 29 28 26 24 15 9 10 14 14 14 7 7 7 11 12 12 14 11 9 14 18 9 6 12 9 7 13 18 15 8 5 7 11 15 12 10 9 7 7 6 7 11 11 10 9
18 17 17 16 15 15 16 16 16 16 15 15 14 14 15 15 13 12 12 14 15 14 13 11 10 10 12 11 9 12 14 13 10 9 11 12 15 17 20 22 26 27 25 28 27 26 23 14 6 13 16 16 13 8 10 5 13 17 13 13 11 12 12 13 9 10 14 11 10 15 19 15 8 5 6 10 13 13 10 9 9 8 7 8 9 10 10 9
18 18 18 17 16 16 17 17 17 16 16 15 14 14 15 14 13 11 11 13 14 14 13 12 11 10 11 10 10 15 19 19 15 12 11 13 17 17 20 23 26 28 26 28 28 27 21 7 7 15 18 17 7 7 10 10 17 15 12 12 12 15 12 12 11 10 13 12 12 11 15 16 9 6 8 10 12 14 13 12 10 8 8 8 8 9 10 9
19 19 18 18 18 17 18 18 18 17 16 16 14 14 14 14 12 12 11 11 13 14 14 12 11 10 9 8 9 14 19 21 20 16 14 15 18 18 19 23 27 29 28 28 29 28 16 6 13 20 19 14 9 11 11 18 18 11 14 14 13 15 12 12 13 12 12 12 13 13 15 16 10 9 11 9 10 13 14 12 11 9 7 8 9 9 9 9
20 19 19 19 18 18 19 19 19 17 16 16 15 13 14 13 11 12 11 10 11 13 14 13 11 9 9 7 10 14 17 19 19 17 17 19 20 18 17 21 27 29 29 28 27 23 13 12 18 23 18 11 9 12 10 18 18 13 16 14 15 16 14 13 14 14 13 9 15 14 10 15 15 14 12 8 8 9 10 11 12 11 8 8 10 9 10 11
21 20 20 19 19 19 19 20 20 18 16 16 15 12 13 11 8 9 11 11 11 11 14 14 10 9 7 4 5 8 12 14 16 16 18 21 20 17 15 21 27 29 29 26 23 19 11 13 18 20 17 14 14 15 13 15 17 16 19 16 14 13 15 16 15 17 13 10 15 14 11 18 19 16 13 10 10 6 5 8 12 13 9 7 9 9 10 11
22 22 21 20 20 19 20 20 21 19 16 16 15 12 11 8 5 8 11 11 10 10 14 13 10 9 4 2 7 7 8 9 12 16 19 21 19 15 13 20 26 25 25 22 20 18 11 13 18 20 17 18 20 19 20 19 18 20 21 18 17 14 13 14 15 17 14 11 12 11 15 20 18 17 13 12 15 10 4 6 11 13 11 7 7 8 9 9
22 22 22 21 21 20 20 21 21 21 17 14 15 13 10 8 7 8 10 10 10 11 13 13 13 11 6 5 8 7 4 5 10 16 20 19 20 16 14 19 23 22 21 20 20 20 15 16 20 23 20 18 19 19 23 26 23 22 19 17 20 21 17 15 15 16 14 15 14 11 16 19 19 18 14 15 18 13 8 8 10 11 10 9 7 7 9 9
23 22 22 21 21 20 19 20 21 22 18 13 12 12 11 10 10 9 12 15 14 13 13 14 17 13 12 10 6 5 5 6 12 16 19 18 22 20 18 20 21 22 24 24 21 19 18 18 22 27 25 22 18 17 23 28 25 23 19 20 23 24 24 21 18 18 15 16 17 13 15 19 18 17 16 18 18 14 13 12 10 9 7 8 8 8 9 9
23 23 22 21 21 20 19 19 20 21 19 13 11 11 9 9 13 14 17 21 16 14 15 16 20 17 13 11 12 5 7 11 13 16 18 19 23 23 23 23 23 25 26 24 20 17 20 21 25 29 24 21 17 15 20 23 23 26 23 23 26 24 25 24 21 21 18 15 18 16 16 19 17 17 19 19 19 18 17 15 12 7 6 7 8 8 9 10
23 23 22 21 21 20 19 18 19 21 18 13 10 9 8 8 13 15 18 25 18 14 16 18 21 21 14 12 17 12 11 16 16 17 20 20 23 24 25 26 26 26 25 25 22 20 24 25 26 29 23 20 17 15 21 21 21 26 25 24 28 24 21 25 24 23 22 17 19 19 17 20 17 16 19 19 20 21 17 16 14 10 9 8 8 8 9 11
23 23 22 21 21 19 19 18 19 20 16 12 9 5 4 6 11 13 15 26 22 13 18 21 22 21 16 15 18 15 17 23 20 21 22 23 26 25 25 27 27 26 25 27 28 26 27 27 25 25 23 23 22 20 23 25 24 25 25 24 27 25 20 28 29 25 25 19 19 21 18 21 19 17 20 18 19 21 18 16 16 14 13 9 8 8 8 10
23 23 22 21 21 19 18 18 18 18 14 10 5 3 4 3 9 13 16 26 28 16 17 22 23 23 19 19 18 14 22 26 22 23 25 25 27 26 24 25 26 27 27 29 31 28 26 26 24 25 24 23 25 23 24 27 26 24 24 21 20 22 21 29 30 24 24 19 18 23 20 24 26 21 22 20 20 23 20 19 19 17 16 13 11 10 9 10
23 23 21 21 21 19 18 18 17 16 12 7 8 11 11 7 5 13 18 23 29 18 13 20 25 25 21 22 15 14 22 26 23 23 26 27 28 27 25 24 26 28 28 28 29 28 26 23 23 27 28 25 25 25 25 25 25 25 25 23 19 19 16 24 30 26 26 22 22 26 19 20 28 26 24 24 25 25 22 23 23 21 19 18 17 15 12 13
23 22 21 21 21 19 17 17 17 15 11 10 14 15 13 12 12 14 16 19 27 21 12 18 23 23 23 23 16 16 24 26 22 21 25 29 29 26 25 24 27 28 26 27 27 28 27 24 24 27 28 28 25 26 26 23 23 26 23 20 21 22 15 17 31 29 28 25 26 29 19 16 26 28 27 28 28 26 24 25 26 24 23 21 21 20 17 15
23 22 21 20 20 20 17 15 17 16 12 13 16 15 11 11 12 11 11 12 17 15 10 18 21 19 22 24 22 22 25 24 23 23 25 29 30 28 26 25 28 28 25 25 27 29 28 26 27 27 27 30 29 27 26 24 24 26 21 15 19 27 21 17 28 29 27 25 26 33 27 20 28 32 31 31 30 28 27 28 27 26 25 23 23 23 19 17
22 22 21 20 20 22 18 13 15 16 15 15 17 14 9 7 10 8 6 5 6 4 8 19 19 16 19 23 26 26 22 18 23 27 27 28 28 30 29 26 26 26 25 26 29 29 28 29 28 27 27 29 28 28 27 26 26 26 23 16 15 24 25 20 27 28 24 23 24 34 31 18 22 33 32 30 32 32 32 31 29 29 28 26 26 25 22 19
22 22 21 20 19 21 20 13 13 17 16 16 16 15 11 8 9 7 2 3 4 3 9 18 18 16 18 23 27 26 21 17 20 25 28 29 28 31 31 27 24 24 25 26 28 27 26 29 30 29 30 27 26 28 25 23 23 22 26 23 17 22 24 18 18 16 10 10 12 26 32 15 12 27 32 33 36 35 35 36 34 31 30 29 29 28 26 23
22 21 22 21 18 20 20 14 14 18 16 16 15 14 13 11 10 6 2 7 8 6 7 17 19 17 19 25 28 28 24 20 19 22 29 30 28 30 32 27 24 24 25 25 27 28 25 26 28 30 31 28 27 30 27 22 20 20 23 21 17 20 22 18 18 15 7 3 5 11 22 14 7 21 32 32 29 25 27 36 37 33 31 30 31 31 28 25
21 21 22 22 20 20 19 13 16 19 14 14 16 14 14 13 11 7 6 12 12 8 9 16 18 17 20 26 28 29 27 22 20 23 30 32 28 31 33 28 26 25 26 28 28 29 29 25 26 27 26 25 27 30 29 25 23 23 22 19 16 18 19 17 14 10 3 4 8 9 12 13 8 17 28 26 25 23 22 27 32 34 34 32 32 31 28 26
20 21 23 23 22 21 15 12 16 18 14 14 14 15 16 13 12 14 15 14 9 7 14 16 18 18 20 24 27 29 28 25 24 25 31 35 31 34 37 31 28 25 24 29 29 27 31 29 26 25 23 25 28 27 23 24 26 24 24 24 18 9 7 7 4 3 3 5 10 14 15 17 17 20 26 28 26 24 21 20 22 28 33 33 34 32 28 27
20 21 22 23 24 20 13 13 17 17 15 14 15 17 17 11 11 20 26 21 8 8 13 14 18 19 20 25 27 27 27 26 27 27 31 36 32 33 37 33 29 25 21 25 28 27 28 29 29 27 23 24 28 27 22 24 27 27 26 25 15 4 4 2 1 1 5 9 14 20 18 17 20 20 22 25 22 20 21 22 21 21 24 27 32 32 30 29
20 22 23 23 23 19 13 14 18 18 17 16 16 19 18 14 15 21 28 29 22 14 12 12 17 21 23 28 28 26 26 26 28 28 30 35 33 32 37 35 30 27 24 23 28 29 22 23 31 31 26 25 26 26 24 23 26 28 27 24 16 7 4 3 4 5 7 11 16 20 16 16 19 15 12 12 10 12 18 22 20 18 19 23 27 30 32 31
20 23 24 22 21 18 15 16 18 19 19 19 19 21 22 22 23 25 29 33 31 24 19 17 18 23 26 27 26 26 27 28 29 30 31 36 35 33 35 38 33 29 27 24 24 28 23 23 31 30 26 28 27 27 28 27 27 29 29 28 22 14 9 9 10 14 16 13 12 16 17 19 20 12 6 6 3 4 11 16 19 21 24 26 27 29 31 31
21 22 24 22 19 16 16 18 19 20 21 20 22 26 30 29 28 29 30 30 29 25 21 23 22 25 29 26 26 26 27 28 28 28 31 35 34 32 33 37 36 32 31 28 23 25 23 22 31 34 28 25 25 29 34 29 23 25 29 29 24 20 17 14 12 17 20 10 4 11 14 13 14 13 13 12 6 6 15 19 22 24 27 28 26 23 23 28
21 22 22 21 16 14 17 19 19 20 21 23 26 31 33 34 32 32 31 28 26 24 23 27 20 19 25 26 26 27 28 29 28 26 30 34 32 32 33 34 36 36 35 31 24 23 22 17 24 35 30 23 21 28 37 31 21 23 27 23 23 24 25 19 8 8 11 4 2 9 14 13 13 14 15 18 13 10 19 21 17 19 24 26 23 17 15 24
21 20 19 17 14 16 19 20 20 22 22 24 30 33 33 34 35 35 34 29 28 27 29 30 19 14 18 23 26 27 28 31 31 27 27 31 31 31 33 32 34 36 36 34 28 24 23 18 20 30 27 24 25 28 33 31 26 26 21 20 23 22 23 22 12 4 4 2 2 7 13 16 16 16 17 19 19 17 23 21 12 14 21 21 21 16 11 19
20 18 14 11 12 16 17 17 19 22 24 28 33 34 33 35 35 36 35 31 30 29 29 30 25 21 21 21 24 27 29 31 33 29 27 28 28 30 33 33 33 35 36 37 34 28 25 21 18 27 29 27 31 34 33 29 28 26 21 22 24 18 18 21 16 10 7 3 1 4 8 7 8 15 19 23 25 24 24 19 11 12 15 14 16 15 11 15
19 15 9 7 10 11 11 14 19 23 28 32 34 33 33 34 35 36 36 33 31 29 27 30 31 28 24 20 18 24 31 32 32 31 29 27 24 26 31 34 33 34 35 37 38 34 31 27 20 24 31 30 33 36 35 30 26 27 25 26 25 20 18 16 15 14 9 4 3 1 4 6 6 10 20 24 25 22 19 16 14 15 13 12 15 14 13 14
17 9 2 3 6 6 7 13 19 25 29 32 32 32 32 32 34 35 33 30 29 29 29 31 33 31 25 22 20 19 24 31 32 31 29 29 25 24 28 33 34 32 31 36 40 37 33 30 23 25 33 33 32 33 34 30 26 25 26 28 25 22 18 11 10 15 13 8 6 4 2 4 7 12 22 21 19 18 18 17 17 17 11 10 15 14 11 10
15 7 10 12 12 9 10 13 15 20 27 30 31 31 30 30 32 33 30 26 26 28 30 32 32 31 29 26 23 18 13 18 29 33 31 29 28 26 25 29 34 34 31 34 40 40 34 28 23 30 37 33 29 29 31 30 26 24 23 24 24 23 20 11 7 14 17 13 11 7 3 7 10 14 19 21 21 20 19 17 14 13 10 9 12 12 10 9
15 10 17 19 19 15 13 16 15 17 23 26 26 27 27 27 29 31 28 26 25 25 27 30 31 30 29 26 24 21 17 15 18 28 32 30 30 28 25 25 31 35 34 33 36 39 38 31 23 25 34 35 32 30 33 31 28 28 27 25 26 26 25 16 7 13 19 14 13 10 3 9 14 14 15 18 18 15 13 12 10 9 10 11 10 10 11 11
16 11 19 21 20 18 17 19 18 17 19 20 22 24 24 26 29 30 29 27 26 25 25 27 27 25 24 23 24 23 18 16 16 17 25 32 32 28 25 25 29 35 37 35 36 36 35 31 23 15 17 24 25 23 29 35 31 29 29 28 29 30 27 21 13 11 15 15 16 11 5 12 19 19 18 17 14 10 9 10 11 10 12 13 12 10 11 11
15 12 18 19 17 19 21 21 19 18 18 19 21 24 24 26 29 29 30 30 28 28 28 27 25 22 20 21 24 24 20 17 18 18 18 24 31 28 25 25 27 34 37 33 33 35 33 28 25 18 8 11 15 14 20 33 33 29 29 28 28 27 25 23 19 13 10 16 20 14 11 20 22 20 19 18 15 12 11 9 10 13 15 14 11 9 9 10
11 10 17 21 21 21 21 19 19 20 20 21 24 24 24 27 29 27 28 30 29 29 29 29 26 23 20 20 22 25 23 18 18 21 22 19 20 21 24 29 29 31 35 35 31 34 35 29 27 29 21 18 23 22 22 28 31 28 29 32 30 26 22 21 23 22 16 15 20 18 14 21 24 22 19 17 16 15 14 11 11 13 14 12 10 9 9 10
10 9 14 20 23 24 20 18 19 20 20 23 27 26 23 24 26 25 25 26 27 27 27 28 27 24 22 22 23 23 23 21 19 21 23 22 18 13 12 26 34 31 32 36 36 33 33 30 28 31 27 22 22 19 19 26 29 26 27 31 31 28 26 25 28 31 27 19 18 19 18 19 23 25 23 22 20 17 13 12 13 14 11 8 8 8 9 12
13 14 16 17 18 20 21 21 20 20 19 20 25 28 26 23 24 24 24 25 27 26 25 26 27 28 27 25 23 23 23 24 21 18 22 25 22 15 8 16 31 36 34 36 38 35 28 24 27 29 27 25 20 13 13 22 28 26 23 25 28 29 28 29 28 27 24 20 19 21 26 28 27 26 26 23 18 14 13 13 16 16 13 11 11 9 9 13
15 17 19 19 19 20 20 19 16 16 17 16 20 24 27 26 25 25 24 24 25 23 23 27 29 31 30 25 22 25 24 21 18 16 22 25 19 15 10 7 15 29 37 34 33 34 26 16 19 24 24 24 24 19 15 18 22 24 24 22 23 27 28 29 29 26 23 21 21 22 28 32 31 29 26 21 16 15 15 17 17 15 14 15 14 12 12 14
15 17 18 20 23 22 20 19 16 14 15 17 18 20 23 25 26 27 25 24 23 20 20 26 31 32 32 27 25 25 18 11 9 8 15 24 20 15 10 6 10 14 33 38 30 30 29 19 14 19 18 16 17 19 23 24 21 20 21 20 18 19 21 22 25 27 28 27 25 21 22 26 28 29 26 19 20 23 23 22 18 15 16 18 18 19 20 20
14 16 17 18 24 25 22 20 17 13 11 11 15 18 20 22 21 23 27 28 27 23 17 20 26 29 32 30 27 25 15 6 2 6 10 21 24 18 12 7 11 10 18 34 32 25 25 20 14 15 16 15 16 16 21 29 29 25 25 26 23 20 19 20 21 23 28 32 32 28 27 25 23 24 23 20 24 27 24 20 18 18 19 22 25 26 25 23
15 16 17 17 22 26 23 21 19 15 10 10 15 17 19 21 20 21 26 30 30 25 17 16 19 22 26 27 21 22 21 14 6 8 13 20 24 22 17 10 9 12 7 13 23 21 19 17 16 13 10 13 21 22 22 23 26 25 28 29 24 19 19 18 15 15 18 23 29 33 34 28 21 25 27 25 24 23 20 18 17 18 20 22 22 21 20 22
Wind_Direction
316 317 319 322 326 329 322 309 303 301 298 295 291 288 285 283 283 283 285 287 289 291 293 294 294 292 290 287 283 279 272 265 257 247 239 230 227 227 221 216 217 220 219 218 225 224 212 204 176 150 134 112 111 119 117 138 233 244 252 283 277 184 157 157 151 142 134 135 134 133 136 135 135 118 105 112 116 115 117 116 133 164 200 133 131 143 151 150
317 317 317 320 323 327 326 314 304 302 301 299 296 292 289 287 285 285 286 288 290 292 294 295 295 294 292 290 284 278 271 263 254 246 236 225 224 221 214 210 209 211 209 210 216 210 199 182 148 136 142 131 128 125 142 212 238 226 222 261 353 125 136 154 146 137 134 138 132 130 137 135 129 119 122 124 126 136 139 144 153 154 142 130 139 151 155 156
316 317 316 318 321 324 326 320 308 302 302 302 301 297 293 290 288 288 288 289 292 294 296 296 296 295 294 290 284 277 269 261 253 243 226 222 222 215 208 207 203 203 202 205 206 196 191 165 136 190 177 188 229 239 187 205 237 245 256 253 85 81 109 124 126 134 134 135 131 132 139 135 129 129 133 129 131 149 154 159 174 167 145 138 145 157 162 159
313 315 315 316 318 321 325 323 312 303 303 303 304 302 297 293 292 291 291 292 293 295 297 298 297 296 293 288 283 277 269 260 252 233 219 223 221 208 204 203 198 199 196 201 198 185 187 164 158 214 230 239 232 230 213 211 251 279 321 9 111 90 101 122 130 135 126 128 141 147 150 143 144 147 143 141 140 150 166 182 200 195 161 141 156 166 168 164
311 312 314 315 316 319 322 323 317 306 302 304 306 306 302 297 295 294 294 295 295 297 299 299 297 293 290 286 282 278 269 257 244 224 212 216 215 205 201 200 197 197 193 198 190 177 192 173 163 201 234 246 232 232 233 218 23 150 328 46 92 105 101 120 133 129 124 130 146 154 154 153 161 156 141 140 135 139 198 220 218 207 152 145 169 170 169 170
310 309 310 312 313 317 320 323 320 310 303 303 306 308 306 301 298 297 297 298 298 299 301 300 293 288 286 282 280 275 257 240 236 225 212 205 203 201 199 199 195 195 195 195 182 178 193 174 169 198 217 237 235 241 243 214 138 93 173 144 111 117 113 124 133 128 126 129 140 147 150 158 167 153 147 150 137 145 206 237 249 153 138 145 162 166 171 176
309 307 307 309 311 314 317 321 320 314 304 302 305 307 309 305 301 300 299 300 300 301 301 296 286 282 281 277 275 265 251 239 233 223 206 199 194 196 197 197 194 194 193 190 180 182 192 175 174 191 204 230 234 247 235 193 203 57 115 177 157 135 129 136 143 136 126 128 137 141 143 145 153 151 162 169 146 156 190 222 249 283 149 150 154 163 172 178
309 306 305 306 309 312 314 317 320 317 307 303 305 306 308 306 304 303 301 301 300 301 299 290 282 278 276 272 268 259 253 239 228 216 197 195 191 193 196 195 193 193 189 185 181 185 189 174 169 183 208 222 238 275 240 170 175 165 112 128 140 134 136 146 147 135 129 141 142 133 121 120 147 154 161 165 154 165 186 204 240 266 168 159 158 163 172 184
310 307 305 303 306 308 311 314 317 318 309 303 303 304 306 305 306 305 303 302 300 300 294 285 277 274 274 267 267 261 249 230 224 214 196 195 192 192 194 195 193 191 187 181 181 187 185 169 164 177 210 225 256 273 224 169 130 155 138 129 137 135 142 150 145 136 131 141 148 146 138 131 157 149 145 153 157 173 189 196 227 223 170 167 169 166 167 183
312 309 304 302 303 305 308 311 314 316 311 303 302 304 303 302 306 306 304 303 299 298 291 282 275 272 272 265 267 262 243 228 227 216 200 199 197 194 192 193 192 191 186 181 184 188 181 164 163 183 252 261 267 273 203 192 151 140 146 142 145 151 156 153 142 136 133 140 163 167 147 138 152 155 142 147 161 182 194 192 201 174 168 169 167 166 165 173
312 310 306 302 300 301 305 307 310 313 311 305 301 302 301 299 303 306 306 303 300 296 289 280 274 272 270 266 262 257 244 224 233 222 207 202 200 198 193 191 191 190 184 183 187 188 187 178 167 202 255 259 265 293 190 201 181 147 150 142 143 160 168 162 145 142 157 161 188 146 118 126 137 156 152 160 175 192 195 181 171 157 163 164 158 164 172 176
309 309 308 303 299 299 300 304 307 309 309 305 301 301 300 297 298 305 305 304 301 295 290 280 275 275 271 269 258 235 217 206 218 206 196 198 197 197 195 193 191 189 184 184 187 187 194 196 187 241 261 259 277 248 176 205 190 157 149 148 158 175 164 165 164 171 169 156 148 128 122 133 149 165 163 172 182 190 188 172 159 153 159 151 150 168 181 182
305 307 307 304 300 298 297 300 304 306 307 303 301 299 299 296 295 302 304 305 302 293 289 282 279 281 273 271 246 205 189 192 202 191 186 187 189 192 193 195 192 189 185 182 183 184 192 199 231 282 268 259 278 200 174 205 165 148 156 164 174 181 156 156 164 160 160 147 149 140 130 141 161 174 163 162 171 175 172 169 164 164 168 149 153 180 187 187
301 303 304 303 300 297 296 297 301 304 305 302 300 299 299 296 293 298 302 303 300 292 287 283 282 284 277 271 243 215 199 196 199 195 195 186 184 190 193 193 191 187 182 180 180 179 186 207 281 278 252 239 254 194 198 179 151 142 167 178 181 184 159 154 168 165 164 157 170 167 142 153 173 170 158 155 165 168 170 177 175 174 179 162 168 193 191 196
296 298 301 301 300 297 295 295 298 302 302 300 297 297 298 295 293 297 301 302 298 291 285 281 282 285 284 264 232 221 212 211 213 205 202 193 185 191 196 193 189 185 180 181 178 174 187 254 276 262 237 225 245 248 220 165 159 158 167 186 199 181 158 168 180 173 173 167 179 179 146 152 170 170 169 164 165 168 174 184 179 182 185 164 176 193 190 198
292 293 295 298 300 299 297 296 297 298 300 299 294 296 298 294 295 299 301 303 297 289 282 278 277 288 290 249 222 222 219 222 227 216 199 190 188 193 196 193 189 183 178 183 177 169 193 237 254 252 233 225 236 239 213 155 163 183 175 193 206 180 163 177 186 182 189 181 183 195 171 163 170 173 177 172 166 166 174 185 180 188 192 162 174 189 189 195
291 291 292 294 297 298 300 299 298 298 297 297 292 292 297 296 306 313 306 300 296 287 277 274 272 283 283 248 252 252 239 230 225 218 198 187 189 191 195 194 188 181 177 178 172 164 188 228 242 239 223 229 224 222 222 169 157 177 183 197 205 187 173 179 192 193 197 189 184 202 192 170 170 175 177 172 181 189 177 177 175 187 202 181 179 187 188 193
290 291 290 291 293 295 299 299 300 300 295 294 291 287 292 289 299 312 302 291 292 285 274 270 269 274 265 68 10 320 265 247 223 203 192 188 182 181 199 195 181 177 176 175 175 178 204 238 236 227 221 229 227 231 233 200 169 169 184 203 203 194 188 189 196 191 191 194 187 191 177 165 167 176 176 173 186 203 211 183 179 192 207 205 197 194 190 190
290 290 290 290 291 293 297 298 299 300 295 292 289 290 294 276 273 308 304 281 276 279 271 265 261 246 196 113 41 355 283 252 232 194 186 187 170 172 205 192 175 175 182 190 195 190 202 225 221 217 221 225 232 241 224 202 185 177 184 202 197 195 196 195 200 191 186 187 179 180 175 165 168 175 177 181 190 204 210 201 198 204 212 214 215 205 200 199
290 290 290 289 290 291 294 296 298 299 295 290 286 290 296 273 261 284 290 275 265 264 255 255 256 222 170 143 110 338 297 229 223 187 183 189 165 171 202 192 181 185 190 198 201 191 197 215 214 212 216 220 235 243 210 193 189 187 194 201 197 199 194 185 191 186 183 184 177 181 178 170 172 174 176 182 195 212 217 220 219 212 219 218 217 215 208 204
288 289 290 289 289 289 291 293 296 297 296 294 292 294 303 290 277 282 289 283 267 254 243 235 243 221 179 165 166 210 259 222 211 185 185 191 168 177 199 192 189 194 191 191 195 198 207 217 216 211 213 219 228 237 218 207 200 191 193 202 199 200 196 188 184 179 187 190 173 172 175 174 175 174 178 182 196 216 223 233 242 230 233 231 218 213 209 205
288 288 288 288 289 288 288 290 291 294 298 297 298 307 319 317 298 295 302 294 272 245 243 226 227 223 198 178 162 166 221 215 202 195 194 188 176 185 199 194 191 195 191 189 199 208 213 219 216 210 212 218 223 236 234 233 226 205 197 205 201 195 193 191 185 176 180 181 170 175 175 174 177 179 186 185 193 213 223 237 252 248 244 244 225 211 207 211
288 287 286 286 287 286 286 286 286 292 298 295 298 317 332 343 324 310 303 295 279 241 236 228 220 222 204 170 152 160 211 212 198 198 197 187 183 190 199 197 191 196 196 196 206 211 213 216 212 208 215 225 230 236 235 235 243 233 215 209 200 190 187 188 183 176 180 186 190 193 183 177 180 181 192 191 191 206 216 233 250 251 251 250 235 228 216 217
287 286 286 284 284 284 283 282 284 290 294 291 275 206 222 335 342 308 286 286 283 258 230 229 222 218 195 158 152 175 205 211 204 200 197 188 185 189 200 201 192 198 204 202 208 214 216 214 208 210 217 230 236 232 234 238 248 250 240 234 210 193 197 192 183 179 183 190 192 186 175 179 186 183 189 194 194 201 209 221 234 241 246 244 237 241 231 222
288 286 285 283 282 280 279 279 281 286 285 260 222 211 224 239 264 275 276 284 287 274 226 228 227 215 187 162 175 208 206 211 212 204 200 189 184 189 198 203 197 200 207 205 210 218 218 212 210 216 219 228 239 232 228 237 250 255 255 257 231 205 212 194 182 180 181 187 189 179 169 180 190 189 189 193 195 201 207 213 221 227 232 237 239 242 234 219
288 286 284 283 280 276 275 276 277 280 272 240 233 236 242 246 245 264 284 290 290 283 241 227 225 213 193 174 182 207 202 209 212 206 207 192 182 189 196 203 202 202 207 206 212 222 219 213 212 220 223 222 234 240 230 225 241 251 253 258 240 229 240 191 176 178 183 193 196 190 188 178 182 191 195 195 196 199 205 208 215 222 228 236 242 243 239 222
287 287 284 283 280 275 270 270 275 275 262 241 243 252 254 256 261 283 307 298 290 290 239 216 218 213 204 182 173 190 196 205 209 204 210 201 185 186 195 203 203 201 204 205 212 220 218 215 213 219 226 224 226 235 235 225 228 241 247 259 243 232 242 213 190 194 200 206 198 192 196 182 182 199 203 200 197 193 201 207 213 225 231 235 239 242 244 234
283 284 283 282 279 276 269 263 266 267 259 243 242 251 250 254 263 277 314 295 280 294 212 206 210 215 210 190 181 192 195 199 207 200 205 211 195 188 196 202 204 204 200 206 215 215 216 217 212 213 223 230 228 227 235 230 222 230 234 238 238 230 243 239 206 203 210 210 197 190 194 185 189 204 203 200 199 196 202 208 212 220 226 230 234 237 243 242
280 281 281 279 276 275 270 262 255 256 258 249 244 247 242 248 257 256 295 257 242 269 218 201 203 205 198 190 189 197 199 196 207 198 198 213 204 194 202 200 202 210 205 212 221 218 219 220 216 213 215 226 229 222 231 229 215 224 230 239 251 233 240 245 212 214 229 220 202 191 194 193 193 202 198 196 202 206 211 213 211 216 223 228 230 232 237 242
277 278 278 276 273 270 268 266 255 252 253 252 251 245 236 239 245 241 237 236 249 294 235 199 201 201 181 183 191 200 204 202 207 198 194 209 208 198 204 201 202 215 214 217 225 224 223 221 223 222 214 220 226 219 224 226 220 228 234 247 258 237 242 251 236 248 277 266 266 211 206 215 193 189 193 201 218 229 224 215 211 216 223 225 226 228 232 237
276 276 275 274 270 265 264 265 258 253 249 250 249 237 230 233 231 226 225 237 255 282 236 202 201 200 181 182 191 198 205 203 204 199 191 200 206 199 204 208 210 220 222 221 224 227 227 223 227 225 213 216 225 224 224 221 223 230 229 228 229 233 245 244 236 251 270 233 267 285 267 263 243 200 205 227 253 256 238 221 217 217 216 216 221 224 227 234
275 273 271 271 268 263 258 252 253 253 246 240 241 230 225 226 226 226 227 239 259 233 210 201 197 199 187 186 192 199 206 205 202 201 194 195 201 203 204 206 212 221 222 219 219 226 231 229 222 219 217 215 217 222 220 209 213 224 227 222 215 217 236 229 236 277 268 258 264 276 280 271 264 244 237 247 252 244 239 236 230 221 215 214 217 218 221 228
274 270 267 266 266 264 254 243 246 249 242 231 228 222 216 222 230 225 227 235 234 187 196 200 196 195 189 190 196 202 207 207 204 204 199 196 199 206 207 205 209 218 220 216 217 219 227 234 224 217 219 215 209 211 208 203 211 220 225 226 222 166 109 196 244 269 275 277 266 265 269 266 266 269 264 257 245 238 241 235 230 226 220 219 217 216 219 223
273 270 265 262 264 265 252 240 240 240 237 227 220 214 210 225 230 224 232 234 226 222 234 225 200 190 189 194 198 202 205 205 205 206 200 194 197 204 209 208 206 215 223 220 218 216 216 229 226 217 212 210 207 209 209 205 210 218 221 226 237 227 168 188 172 171 240 252 250 252 250 247 256 271 276 257 235 232 235 228 226 228 223 218 215 215 218 221
271 269 266 261 260 261 249 238 235 233 232 224 217 213 212 225 228 224 231 232 232 246 261 254 222 194 189 199 203 204 206 202 202 208 201 193 198 203 207 212 207 210 222 222 220 220 218 225 224 215 210 211 210 210 213 210 211 215 211 214 230 238 233 234 209 202 221 233 240 240 234 235 241 241 206 181 166 187 198 206 215 221 220 214 210 213 218 222
270 268 267 263 259 257 247 238 232 229 229 223 217 217 219 225 225 224 228 231 239 253 266 271 250 204 188 196 207 208 207 204 202 209 203 195 201 205 206 214 211 209 218 220 218 218 221 232 223 208 204 213 217 212 212 217 218 204 194 196 208 222 238 243 216 209 222 233 244 242 245 236 215 199 195 209 226 141 153 186 208 215 215 211 206 211 220 226
271 269 267 266 261 249 240 235 230 226 225 221 220 223 227 230 228 227 230 237 246 257 278 291 273 213 192 192 203 210 207 207 210 213 203 194 201 209 207 212 216 213 215 219 221 217 222 233 204 191 196 210 216 212 212 222 224 194 184 192 202 216 238 254 252 213 217 220 230 241 250 242 213 199 203 213 213 156 153 176 190 192 197 201 203 207 221 228
273 270 271 272 262 243 234 230 228 226 222 222 225 229 232 234 234 231 231 241 253 265 284 293 284 248 224 201 198 208 208 208 211 212 204 195 200 211 209 210 217 217 214 219 228 225 223 228 191 185 203 210 200 205 215 225 224 205 201 211 210 217 234 243 249 219 175 176 250 252 250 244 233 215 199 198 197 177 172 179 179 176 181 190 200 204 217 226
278 276 279 276 255 244 237 228 228 225 221 222 227 230 233 236 237 234 233 242 257 270 283 284 277 274 262 228 204 203 206 210 212 211 208 201 201 210 211 210 214 217 216 219 228 229 224 231 211 196 207 202 190 202 219 225 216 207 211 211 205 214 227 226 224 198 164 161 217 288 284 282 262 227 205 194 190 182 181 188 198 195 191 202 210 211 224 231
282 284 287 257 238 242 229 218 222 221 221 226 228 231 236 240 242 240 238 243 253 266 278 276 273 277 272 254 229 209 204 210 215 212 207 203 205 208 210 211 211 215 220 219 224 229 228 236 229 198 197 194 188 200 215 220 207 197 210 215 201 202 217 225 225 206 181 152 149 238 297 4 360 217 193 180 179 183 186 182 178 186 196 217 222 223 230 231
281 283 281 202 226 241 218 211 217 220 224 230 232 234 237 242 249 249 247 250 255 262 268 270 274 278 272 262 258 237 210 206 211 211 204 202 208 207 206 211 211 212 220 221 222 226 229 237 230 193 188 194 194 198 206 213 210 200 212 222 213 209 213 211 212 205 197 191 177 170 171 64 77 151 162 153 152 162 167 163 170 185 191 205 213 217 219 224
275 237 155 163 189 218 248 244 235 233 233 233 234 237 239 244 251 254 254 255 256 260 263 264 268 272 268 262 262 261 242 218 212 210 206 203 208 213 213 215 212 209 216 222 222 222 226 236 226 193 188 194 199 203 202 206 216 216 216 222 226 233 232 219 195 197 200 202 201 203 167 117 122 143 152 148 148 153 158 159 167 174 170 179 193 198 206 231
271 214 173 185 195 202 239 256 251 246 244 245 244 244 245 249 253 258 258 256 257 262 261 257 260 266 265 263 265 267 274 275 242 218 213 210 210 217 224 221 212 208 213 220 222 221 225 235 228 195 188 192 200 209 205 200 208 219 220 219 227 240 244 251 252 196 192 191 194 205 171 132 148 158 163 162 165 175 184 185 178 162 161 178 193 204 214 228
268 218 183 198 209 204 217 235 241 247 250 255 255 251 250 250 252 256 257 255 257 261 259 254 257 263 258 253 262 265 263 281 285 251 227 221 217 217 223 222 211 205 210 218 219 217 222 231 227 195 177 188 200 209 201 192 197 215 221 214 215 225 234 247 256 210 190 191 195 197 154 149 159 164 168 167 168 180 187 192 195 188 189 196 204 216 222 231
264 228 192 197 217 226 230 232 236 246 251 253 256 255 253 252 252 254 254 254 255 255 258 259 259 262 259 251 257 262 261 268 275 280 272 242 225 221 222 219 210 206 210 216 217 216 219 225 223 213 186 174 193 212 204 192 193 208 220 220 219 220 222 230 239 237 211 198 206 206 153 149 159 165 167 166 167 167 164 179 194 193 199 207 214 227 238 250
261 230 203 200 207 225 241 246 245 248 250 252 258 258 254 252 253 255 255 255 254 253 256 261 262 263 263 261 259 257 261 264 256 269 293 280 240 231 226 218 211 207 209 213 214 215 218 222 221 219 211 183 187 209 220 204 193 196 209 223 234 236 232 227 227 236 238 208 206 212 181 160 167 176 181 189 195 186 180 198 206 192 193 205 220 241 260 268
255 228 218 212 206 212 228 240 246 252 253 256 261 263 261 257 253 252 253 251 251 256 259 258 257 257 259 267 272 265 261 263 257 260 281 289 283 281 243 216 213 209 207 212 211 211 216 217 216 220 215 196 192 206 213 204 200 199 202 213 228 240 246 242 225 224 231 221 205 209 208 197 192 194 199 201 199 194 199 213 208 197 198 200 204 226 253 266
248 227 222 223 215 212 214 217 227 241 247 256 263 262 262 262 255 250 250 249 251 255 254 252 250 250 255 265 276 279 270 261 257 256 270 283 288 288 256 216 219 213 206 211 210 209 215 211 208 217 216 208 213 218 204 201 206 214 220 220 219 220 235 248 239 225 225 227 223 219 220 224 224 218 212 207 209 225 233 219 202 201 214 218 213 226 255 268
257 242 230 227 225 218 214 215 222 235 244 261 272 264 258 258 257 254 253 257 261 254 243 248 252 249 251 256 268 280 278 263 252 250 263 276 284 278 264 255 242 217 207 212 212 211 224 220 201 210 210 209 220 228 228 223 217 221 236 246 233 215 220 238 244 243 245 250 254 241 225 227 232 232 228 226 232 236 218 197 191 198 217 225 225 238 263 277
265 261 246 234 229 224 222 223 228 240 244 254 272 271 258 252 255 257 254 254 264 261 243 248 255 250 247 251 266 279 285 283 262 244 265 271 270 278 283 309 313 237 207 210 211 211 224 229 209 213 216 213 219 226 236 243 243 238 241 253 250 228 227 239 245 250 251 252 259 252 233 232 234 234 237 228 209 204 199 200 211 227 243 249 250 252 261 274
268 268 262 245 231 226 229 234 241 250 250 264 287 283 263 253 257 260 253 249 256 261 256 252 254 250 246 251 268 275 277 310 297 187 240 259 255 264 283 303 325 306 214 207 207 205 212 219 217 220 228 233 230 238 247 241 238 246 250 253 251 241 244 253 253 257 254 248 248 242 236 244 239 224 222 208 194 198 204 212 226 238 248 255 256 255 258 273
268 268 270 261 239 229 234 246 247 243 251 292 302 290 272 265 268 265 258 256 252 248 257 266 252 243 244 251 268 273 266 277 276 209 224 247 251 259 270 280 304 319 303 214 203 193 193 210 222 217 224 242 235 245 264 245 224 228 235 238 244 251 262 266 265 280 277 259 250 240 236 241 226 202 203 204 198 203 213 223 235 248 256 256 254 256 266 280